Showing default

HOTSAT-1, 56954

Orbit data source: Space-Track

HOTSAT-1, 56954 is a payload satellite owned by Satellite Vu (UK) in SSO that was launched on Mon, 12 Jun 2023 UTC via an FALCON 9 launch vehicle from the Air Force Western Test Range (AFWTR). Payload-class satellites include a variety of spacecraft equipped with specific instruments for various scientific and technological missions. These include communications satellites like Starlink; space stations such as the ISS; scientific satellites like the Hubble; Earth observation satellites from companies like Planet Labs, Umbra, and HawkEye 360; GPS; miniature CubeSats for education and research; and military/defense satellites.

Loading next visibility...
Identifier
56954, 2023-084Y
Orbit
SSO
Country
Flag of UKUK
Related business
Manufacturer
SSTL
Mission
Non-operational Commercial Imaging
Bus & Motor
DARKCARB, H2O AOCS
Mass
130 kg wet, 130 kg dry
Launch date (UTC)
2023-06-12 (3 years ago)
Launch vehicle
FALCON 9
Launch site
Air Force Western Test Range (AFWTR)
Object type
Payload
Rocket body
Debris
Shape & HBR
Box + Cone + 1 Pan, 0.5 m
Radar Cross Section
0.625 m², Medium (>0.1 m² and < 1m²)

Expand to show TLE details & history
Last TLE update: 7 hours ago

TLE from 7 hours ago
0 HOTSAT-1
1 56954U 23084Y   26140.62617524  .00002620  00000-0  11563-3 0  9991
2 56954  97.6194 274.6031 0002407  72.6533 287.4966 15.22690174162906
Epoch: 2026-05-20T15:01Z
TLE epoch observation values (Epoch: 2026-05-20T15:01:41.540Z)
Latitude
-0.00005°
Longitude
170.89699°
Altitude
500.321 km
Speed
7.615 km/s
True Right ascension
18h 18m 24s
True Declination
0° 00' 00"
Sunlit
Object was in full shadow at epoch
Visualization orbit readout
Latitude
Unknown
Longitude
Unknown
Altitude
Unknown
Speed
Unknown
Apparent Right ascension
Unknown
Apparent Declination
Unknown
Sunlit
N/A
Visualization observer readout
Local Sidereal Time
07:24:02
Azimuth
Unknown
Elevation
Unknown
Doppler factor
Unknown
Orbital elements
Apogee altitude
496.356 km
Perigee altitude
493.047 km
Semi-major axis
6,872.839 km
Eccentricity
0.00024
Inclination
97.6194°
RAAN
274.6031°
Arg. of periapsis
72.6533°
True anomaly
287.47029°
Mean anomaly
287.4966°
Eccentric anomaly
287.48345°
Mean motion
3.80925 °/min
Orbital period
94.51 mins
BSTAR
0.00011563
Loading maneuver chart data...
Computing Atmospheric mass density...
Loading historical data...
Loading historical data...
Loading historical data...
Loading historical data...
Loading historical data...
Loading historical data...
Loading historical data...

Documentation

Showing up to 5 results
|